Location: *
(45.0500°N, 12.0500°E)
Time: 13:41:53
(UTC+00:00)

STARLINK-1105 - Pass Details

Date: 09 April 2020
Orbit: 376 x 383 km, 53.0° (Epoch: 03 June)

Event Time Altitude Azimuth Distance (km) Brightness Sun altitude
Rises 19:41:19 0° 300° (WNW) 2,271 8.5 -18.9°
Reaches altitude 10° 19:43:24 10° 297° (WNW) 1,415 6.9 -19.2°
Enters shadow 19:46:26 58° 225° (SW) 457 3.2 -19.6°
